Date,TemperatureHighF,TemperatureAvgF,TemperatureLowF,DewpointHighF,DewpointAvgF,DewpointLowF,HumidityHigh,HumidityAvg,HumidityLow,PressureMaxIn,PressureMinIn,WindSpeedMaxMPH,WindSpeedAvgMPH,GustSpeedMaxMPH,PrecipitationSumIn
2013-9-1,95.5,85.1,74.6,65.0,59.9,55.0,59,44,27,29.87,29.76,7,2,11,0.00
2013-9-2,95.8,84.1,73.2,65.0,62.3,59.0,72,50,29,29.89,29.76,9,2,12,0.00
2013-9-3,91.5,82.3,72.5,64.0,60.6,59.0,65,49,35,29.93,29.81,10,3,12,0.00
2013-9-4,92.3,81.2,68.5,61.0,57.3,54.0,75,46,30,29.96,29.83,8,2,13,0.00
2013-9-5,93.4,80.9,68.8,59.0,56.6,54.0,69,45,28,29.94,29.82,7,3,12,0.00
2013-9-6,93.0,80.2,67.3,58.0,54.3,49.0,64,42,25,29.94,29.78,10,3,14,0.00
2013-9-7,103.4,86.5,70.2,57.0,47.7,33.0,57,31,9,29.85,29.72,11,2,13,0.00
2013-9-8,98.6,85.6,71.5,50.0,44.6,38.0,34,24,13,29.82,29.66,10,3,14,0.00
2013-9-9,98.3,85.5,72.9,53.0,48.6,45.0,45,29,16,29.75,29.62,7,2,13,0.00
2013-9-10,98.8,85.5,71.9,51.0,47.4,45.0,44,28,17,29.80,29.67,8,2,13,0.00
2013-9-11,90.2,79.1,67.5,54.0,48.4,45.0,49,35,22,29.92,29.80,11,2,14,0.00
2013-9-12,89.7,77.5,65.8,57.0,52.9,48.0,62,44,27,29.94,29.79,10,2,11,0.00
2013-9-13,93.6,81.2,68.0,58.0,53.4,51.0,56,40,26,29.84,29.66,8,2,12,0.00
2013-9-14,96.0,83.8,70.7,59.0,55.4,52.0,55,39,27,29.73,29.60,7,2,13,0.00
2013-9-15,93.3,81.5,69.7,58.0,54.6,51.0,61,41,26,29.77,29.67,9,2,14,0.00
2013-9-16,90.1,77.6,65.8,56.0,53.4,50.0,61,44,29,29.84,29.71,9,3,12,0.00
2013-9-17,86.3,76.1,66.3,57.0,51.3,44.0,62,44,30,29.80,29.70,13,4,15,0.00
2013-9-18,82.5,71.3,58.6,51.0,47.3,44.0,64,44,28,29.88,29.76,7,2,17,0.00
2013-9-19,90.8,75.7,61.2,52.0,47.4,43.0,57,38,24,29.84,29.70,9,2,12,0.00
2013-9-20,92.8,79.5,65.7,49.0,45.8,36.0,48,32,19,29.81,29.68,11,3,17,0.00
2013-9-21,82.8,70.5,60.7,56.0,49.9,44.0,63,49,32,29.85,29.71,19,6,23,0.00
2013-9-22,73.0,64.4,55.4,50.0,47.6,45.0,79,56,38,29.95,29.84,13,4,18,0.00
2013-9-23,82.0,68.3,54.8,52.0,47.5,43.0,70,49,31,30.01,29.88,6,2,10,0.00
2013-9-24,88.4,74.3,60.3,51.0,46.9,42.0,61,40,21,29.95,29.77,6,2,11,0.00
2013-9-25,71.8,65.3,58.2,50.0,44.3,39.0,66,48,33,29.88,29.71,14,6,21,0.00
2013-9-26,71.5,61.7,52.6,42.0,39.1,35.0,66,45,27,29.95,29.75,11,4,17,0.00
2013-9-27,78.2,64.5,52.4,39.0,36.3,34.0,54,37,21,30.07,29.95,7,2,12,0.00
2013-9-28,85.9,69.3,54.6,42.0,37.3,34.0,49,33,17,30.07,29.95,7,1,11,0.00
2013-9-29,87.1,72.5,57.1,39.0,35.2,32.0,44,27,15,30.08,29.96,6,2,11,0.00
2013-9-30,81.5,68.8,56.3,56.0,47.9,33.0,68,49,32,30.07,29.89,7,2,13,0.00